Flag for Canada Weather past 2 weeks in Dieppe, New Brunswick, Canada

Now
43 °F

Clear.


Feels Like: 38 °F
Forecast: 40 / 60 °F
Wind: 8 mph from Southwest

Location: Moncton

Current Time: Sep 16, 2014 at 12:49:20 AM

Latest Report: Sep 16, 2014 at 12:00 AM


Visibility: 15 mi

Pressure: 30.04 "Hg

Humidity: 87%

Dew point: 39 °F

Location of DieppeLocation

Historic Weather in Dieppe — Graph

°F

Dieppe temperature yesterday

Maximum temperature yesterday: 57 °F (at 2:00 PM)
Minimum temperature yesterday: 45 °F (at 7:00 AM)
Average temperature yesterday: 50 °F

Past Weeks' High & Low Weather Summary

 TemperatureHumidityPressure
High84 °F (Sep 6, 2:00 PM)100% (Sep 1, 12:00 AM)30.47 "Hg (Sep 1, 12:00 AM)
Low39 °F (Sep 9, 7:04 AM)24% (Sep 8, 3:00 PM)29.65 "Hg (Sep 3, 9:00 AM)
Average61 °F76%30.02 "Hg
* Reported Aug 31 11:00 PM — Sep 15 11:00 PM, Dieppe, Weather by CustomWeather, © 2014

Note: Actual official high and low records may vary slightly from our data, if they occured in-between our weather recording intervals... More about our weather records

Advertising

Dieppe weather history for previous 24 hours

 ConditionsComfort  
Time TempWeatherWind HumidityBarometerVisibility
11:00 PM
Sep 15
45 °FClear.8 mph81%30.06 "Hg15 mi
10:00 PM45 °FPassing clouds.7 mph81%30.06 "Hg15 mi
9:00 PM48 °FPassing clouds.6 mph76%30.06 "Hg15 mi
8:00 PM50 °FScattered clouds.9 mph67%30.06 "Hg15 mi
7:00 PM54 °FPartly sunny.8 mph58%30.06 "Hg15 mi
6:00 PM54 °FPartly sunny.6 mph58%30.05 "Hg15 mi
5:00 PM55 °FRefreshingly cool.12 mph51%30.05 "Hg15 mi
4:00 PM55 °FPartly sunny.12 mph55%30.05 "Hg15 mi
3:00 PM55 °FPartly sunny.15 mph51%30.06 "Hg15 mi
2:00 PM57 °FPartly sunny.17 mph48%30.07 "Hg15 mi
1:00 PM55 °FPartly sunny.14 mph55%30.09 "Hg15 mi
12:00 PM54 °FPartly sunny.13 mph58%30.10 "Hg15 mi
11:00 AM52 °FPartly sunny.12 mph67%30.11 "Hg15 mi
10:00 AM52 °FPartly sunny.8 mph67%30.13 "Hg15 mi
9:00 AM48 °FPartly sunny.9 mph76%30.13 "Hg15 mi
8:00 AM46 °FPartly sunny.7 mph87%30.13 "Hg15 mi
7:00 AM45 °FPassing clouds.8 mph93%30.14 "Hg15 mi
6:00 AM46 °FOvercast.9 mph87%30.12 "Hg15 mi
5:00 AM48 °FOvercast.6 mph82%30.10 "Hg15 mi
4:00 AM48 °FOvercast.9 mph82%30.11 "Hg15 mi
3:00 AM48 °FPassing clouds.8 mph87%30.10 "Hg15 mi
2:00 AM48 °FClear.12 mph82%30.09 "Hg15 mi
1:00 AM48 °FClear.9 mph82%30.09 "Hg15 mi
12:00 AM50 °FClear.10 mph82%30.09 "Hg15 mi
Weather by CustomWeather, © 2014

See weather overviewHow to use our weather pages